Location: Neuvy Saint Sepulchre
(46.5953°N, 1.8122°E)
Time: 14:18:02
(UTC+02:00)

ISS - Pass Details

Date: 28 September 2022
Orbit: 414 x 417 km, 51.6° (Epoch: 01 October)

Event Time Altitude Azimuth Distance (km) Brightness Sun altitude
Rises 21:17:45 0° 296° (WNW) 2,363 1.7 -17.7°
Reaches altitude 10° 21:19:52 10° 299° (WNW) 1,498 0.2 -18.0°
Maximum altitude 21:23:12 63° 22° (NNE) 472 -3.6 -18.6°
Enters shadow 21:23:32 58° 56° (NE) 493 -3.7 -18.6°
